Starlink 34605

operational
NORAD ID: 64677 Int'l Des: 2025-139 Owner: SPXS Country: US Constellation: starlink
LEOCIRCULAR

Starlink 34605について

説明を読み込み中...

リアルタイム位置

3D地球を読み込み中...

次回通過

高度履歴

Altitude vs Time

uPlot chart will show altitude changes over time

軌道要素

1 64677U 25139P 26095.41515862 .00036701 00000-0 12466-2 0 9992
2 64677 53.1581 352.4256 0000983 84.7613 275.3500 15.30162906 44521
Epoch: Apr 5, 2026 • Age: 8 hours

現在のステータス

高度 478.7 km
速度 7.63 km/s
衛星直下点 42.30°N, 71.24°W
打ち上げ日 Jun 28, 2025
運用期間 0.7 years
タイプ internet

技術仕様

分類 Payload
質量 575.00 kg
乾燥質量 530.00 kg
総質量 575.00 kg
長さ 0.30 m
直径 4.10 m
スパン 29.00 m
形状 Box + pan
製造者 SPXS
バスタイプ Starlink V2MO
フェーズステータス In Orbit
所有者/国 SPXS/US

大規模コンステレーション

Loading constellations...